User: anonymous   Login
Location: Unspecified
(0.0000°N, 0.0000°E)
Time: 14:13:22
(UTC+02:00)
Language:

Cosmos 1072 Rocket - Orbit

View from above orbital plane
View from above orbital plane
View from above satellite
View from above satellite

Ground track
Ground track

The orbit data is extracted from the following two-line orbital elements,

1 11239U 79003B   15147.84757264  .00000095  00000-0  82035-4 0  9992
2 11239 082.9378 286.2287 0040045 333.3026 182.8887 13.75775625824546
Epoch (UTC): 27 May 2015 20:20:30
Eccentricity: 0.0040045
inclination: 82.9378°
perigee height: 949 km
apogee height: 1008 km
right ascension of ascending node: 286.2287°
argument of perigee: 333.3026°
revolutions per day: 13.75775625
mean anomaly at epoch: 182.8887°
orbit number at epoch: 82454

The dashed part of the orbit path shows where the satellite is in the earth's shadow,  

DLR